TimePST,TemperatureF,Dew PointF,Humidity,Sea Level PressureIn,VisibilityMPH,Wind Direction,Wind SpeedMPH,Gust SpeedMPH,PrecipitationIn,Events,Conditions,WindDirDegrees,DateUTC
12:58 AM,38.3,36.0,91,30.29,10.0,North,6.9,-,N/A,,Overcast,360,2013-11-11 08:58:00
1:58 AM,37.8,36.0,93,30.29,10.0,North,6.9,-,N/A,,Overcast,10,2013-11-11 09:58:00
2:58 AM,36.7,35.4,95,30.30,10.0,North,5.8,-,N/A,,Mostly Cloudy,10,2013-11-11 10:58:00
3:58 AM,36.0,34.7,95,30.32,10.0,North,6.9,-,N/A,,Mostly Cloudy,360,2013-11-11 11:58:00
4:58 AM,36.3,35.1,95,30.33,10.0,North,8.1,-,N/A,,Mostly Cloudy,10,2013-11-11 12:58:00
5:58 AM,36.1,34.9,95,30.35,10.0,North,4.6,-,N/A,,Overcast,10,2013-11-11 13:58:00
6:58 AM,36.1,34.9,95,30.35,10.0,NNW,8.1,-,N/A,,Overcast,340,2013-11-11 14:58:00
7:58 AM,36.5,35.1,95,30.38,10.0,North,6.9,-,N/A,,Mostly Cloudy,350,2013-11-11 15:58:00
8:58 AM,38.5,36.1,91,30.38,10.0,North,8.1,-,N/A,,Clear,10,2013-11-11 16:58:00
9:14 AM,41.0,37.4,87,30.33,10.0,NNE,11.5,-,N/A,,Clear,20,2013-11-11 17:14:00
9:25 AM,41.0,37.4,87,30.33,10.0,North,10.4,-,N/A,,Partly Cloudy,10,2013-11-11 17:25:00
9:58 AM,43.3,37.4,80,30.39,10.0,NNE,11.5,-,0.00,,Partly Cloudy,20,2013-11-11 17:58:00
10:58 AM,45.3,38.1,76,30.38,10.0,NNE,12.7,-,N/A,,Clear,20,2013-11-11 18:58:00
11:58 AM,47.5,39.2,73,30.35,10.0,NNE,13.8,-,N/A,,Clear,20,2013-11-11 19:58:00
12:58 PM,48.6,39.6,71,30.35,10.0,North,12.7,-,N/A,,Clear,10,2013-11-11 20:58:00
1:58 PM,49.3,39.7,70,30.33,10.0,North,15.0,-,N/A,,Clear,10,2013-11-11 21:58:00
2:58 PM,49.1,40.1,71,30.34,10.0,North,12.7,-,N/A,,Clear,10,2013-11-11 22:58:00
3:58 PM,45.5,39.2,79,30.33,10.0,North,8.1,-,N/A,,Clear,360,2013-11-11 23:58:00
4:58 PM,42.3,38.1,85,30.32,10.0,North,10.4,-,N/A,,Clear,360,2013-11-12 00:58:00
5:58 PM,40.3,36.9,88,30.31,10.0,NNE,10.4,-,N/A,,Clear,20,2013-11-12 01:58:00
6:58 PM,38.8,36.1,90,30.32,10.0,North,8.1,-,N/A,,Clear,10,2013-11-12 02:58:00
7:58 PM,37.9,35.8,92,30.32,10.0,NNE,9.2,-,N/A,,Clear,20,2013-11-12 03:58:00
8:58 PM,37.2,35.4,93,30.32,10.0,North,9.2,-,N/A,,Clear,10,2013-11-12 04:58:00
9:58 PM,37.2,35.4,93,30.30,10.0,NNE,10.4,-,N/A,,Clear,20,2013-11-12 05:58:00
10:58 PM,37.4,35.6,93,30.29,10.0,NNE,8.1,-,N/A,,Clear,20,2013-11-12 06:58:00
11:58 PM,36.3,34.7,94,30.29,10.0,NNE,8.1,-,N/A,,Clear,20,2013-11-12 07:58:00